DW4362 Weather Reports


time (UTC)temp
C
wind
direction
speed
KPH
gust
KPH
rain 1hr
cm
rain 24hr
cm
rain mn
cm
humidity
%
barometer
mb
20260505130140 14 174 0.0 0.0 0.00 0.00 0.00 94 1013.9
20260505124639 13 210 0.0 0.0 0.00 0.00 0.00 94 1013.8
20260505123139 12 211 0.0 0.0 0.00 0.00 0.00 94 1013.8
20260505121639 11 211 0.0 0.0 0.00 0.00 0.00 94 1013.6
20260505120139 10 212 0.0 0.0 0.00 0.00 0.00 95 1013.7
20260505114638 10 211 0.0 0.0 0.00 0.00 0.00 95 1013.6
20260505113138 10 211 0.0 0.0 0.00 0.00 0.00 95 1013.5
20260505111638 9 211 0.0 0.0 0.00 0.00 0.00 95 1013.4
20260505110137 9 211 0.0 0.0 0.00 0.00 0.00 95 1013.3
20260505100206 9 211 0.0 0.0 0.00 0.00 0.00 95 1013.0
20260505094636 9 212 0.0 0.0 0.00 0.00 0.00 95 1013.2
20260505093136 9 211 0.0 0.0 0.00 0.00 0.00 95 1013.0
20260505091636 9 212 0.0 0.0 0.00 0.00 0.00 95 1012.9
20260505090205 10 211 0.0 0.0 0.00 0.00 0.00 95 1012.8
20260505084635 10 211 0.0 0.0 0.00 0.00 0.00 95 1012.5
20260505081634 10 211 0.0 0.0 0.00 0.00 0.00 95 1012.4
20260505080204 10 211 0.0 0.0 0.00 0.00 0.00 95 1012.5
20260505074634 10 211 0.0 0.0 0.00 0.00 0.00 95 1012.6
20260505073134 10 211 0.0 0.0 0.00 0.00 0.00 95 1012.4
20260505071633 10 211 0.0 0.0 0.00 0.00 0.00 95 1012.8
20260505064633 10 212 0.0 0.0 0.00 0.00 0.00 94 1013.3
20260505063133 11 211 0.0 0.0 0.00 0.00 0.00 94 1013.4
20260505061633 11 211 0.0 0.0 0.00 0.00 0.00 94 1013.5
20260505060203 11 211 0.0 0.0 0.00 0.00 0.00 94 1013.7
20260505054632 11 211 0.0 0.0 0.00 0.00 0.00 94 1013.8
20260505053132 11 211 0.0 0.0 0.00 0.00 0.00 94 1014.1
20260505051632 11 211 0.0 0.0 0.00 0.00 0.00 93 1013.8
20260505050202 11 211 0.0 0.0 0.00 0.00 0.00 93 1013.7
20260505041702 12 211 0.0 0.0 0.00 0.00 0.00 89 1014.0
20260505034702 13 211 0.0 0.0 0.00 0.00 0.00 88 1014.2
20260505033202 13 211 0.0 0.0 0.00 0.00 0.00 87 1014.1
20260505031703 13 211 0.0 0.0 0.00 0.00 0.00 87 1014.0
20260505030202 13 211 0.0 0.0 0.00 0.00 0.00 84 1013.9
20260505024703 14 211 0.0 0.0 0.00 0.00 0.00 82 1014.0
20260505023202 15 211 0.0 0.0 0.00 0.00 0.00 80 1014.0
20260505020202 16 212 0.0 0.0 0.00 0.00 0.00 74 1014.0
20260505014702 16 211 0.0 0.0 0.00 0.00 0.00 70 1014.0
20260505013202 17 211 0.0 0.0 0.00 0.00 0.00 69 1014.2
20260505011702 17 211 0.0 0.0 0.00 0.00 0.00 67 1014.1
20260505010202 18 151 0.0 0.0 0.00 0.00 0.00 64 1014.0
20260505003202 20 168 0.0 0.0 0.00 0.00 0.00 59 1014.1
20260505001702 20 208 0.0 0.0 0.00 0.00 0.00 56 1014.0
20260505000204 21 210 0.0 3.2 0.00 0.00 0.00 55 1014.0
20260504234702 21 121 4.8 8.0 0.00 0.00 0.00 53 1014.1
20260504231701 22 212 0.0 8.0 0.00 0.00 0.00 48 1013.9
20260504230201 22 141 4.8 12.9 0.00 0.00 0.00 47 1014.0
20260504224701 22 208 9.7 14.5 0.00 0.00 0.00 47 1014.0
20260504223201 22 204 4.8 9.7 0.00 0.00 0.00 45 1014.0
20260504221700 23 170 3.2 4.8 0.00 0.00 0.00 44 1014.1
20260504220200 23 217 4.8 9.7 0.00 0.00 0.00 45 1014.2
20260504214700 25 169 8.0 14.5 0.00 0.00 0.00 40 1014.2
20260504213200 25 200 4.8 8.0 0.00 0.00 0.00 41 1014.1
20260504211700 26 186 8.0 9.7 0.00 0.00 0.00 39 1014.2
20260504210200 26 168 9.7 9.7 0.00 0.00 0.00 39 1014.1
20260504203159 26 254 0.0 8.0 0.00 0.00 0.00 35 1014.1
20260504200159 26 153 9.7 17.7 0.00 0.00 0.00 35 1014.4
20260504194659 26 227 0.0 8.0 0.00 0.00 0.00 33 1014.6
20260504193159 27 124 4.8 8.0 0.00 0.00 0.00 35 1014.7
20260504191659 27 151 9.7 9.7 0.00 0.00 0.00 36 1014.8
20260504190159 26 175 4.8 9.7 0.00 0.00 0.00 35 1015.2
20260504184659 26 163 12.9 12.9 0.00 0.00 0.00 38 1015.4
20260504183159 26 153 3.2 8.0 0.00 0.00 0.00 38 1015.5
20260504181658 26 161 8.0 12.9 0.00 0.00 0.00 37 1015.7
20260504171657 26 153 8.0 8.0 0.00 0.00 0.00 34 1016.3
20260504170157 25 211 9.7 14.5 0.00 0.00 0.00 34 1016.5
20260504160156 24 33 0.0 3.2 0.00 0.00 0.00 39 1017.0
20260504150155 23 84 0.0 0.0 0.00 0.00 0.00 41 1017.4
20260504140154 21 164 0.0 0.0 0.00 0.00 0.00 57 1017.7